GFSSW_prec_cloud_003.txt.gz
Cloud_Cover
100 100 100 100 100 100 100 94 100 100 100 100 100 100 100 100 100 100 100 100 77 100 59 5 5 99 64 1 5 5 32 5 10 46 75 80 55 100 46 30 50 100 100 73 100
98 100 100 100 100 100 100 100 99 100 100 100 100 100 100 100 100 100 100 100 100 93 100 38 49 5 91 16 31 26 18 69 46 59 99 24 82 100 87 13 63 81 88 100 80
80 100 100 100 100 100 100 100 100 100 100 100 100 100 100 100 100 100 100 100 10 33 100 100 94 100 100 100 100 10 20 54 98 81 74 97 100 100 98 50 4 5 57 50 24
100 100 100 100 100 99 100 100 100 100 100 100 100 100 100 100 100 100 100 100 100 100 100 100 100 100 40 51 9 94 98 100 100 63 40 66 99 100 76 34 5 52 100 100 98
99 100 100 100 100 99 74 100 100 100 100 100 100 100 100 100 100 70 100 100 100 100 89 47 15 28 26 22 10 6 100 100 74 66 80 94 100 99 10 92 43 69 100 100 55
100 99 100 100 100 100 81 100 96 64 98 98 100 100 100 100 100 100 100 100 100 99 98 24 20 80 100 44 91 62 97 100 100 98 83 93 96 42 73 81 6 82 96 19 82
100 100 100 82 9 100 100 99 100 100 100 100 100 100 100 100 100 100 62 100 100 96 100 100 69 100 100 100 100 100 100 100 100 100 59 91 100 61 100 100 100 100 88 99 91
100 77 100 100 100 100 100 100 100 100 100 97 100 100 100 100 100 100 70 100 100 100 100 100 78 100 100 100 89 98 40 99 94 100 100 100 100 100 100 100 100 93 18 67 99
100 100 100 82 100 100 100 100 100 93 100 100 100 100 100 100 100 100 100 100 100 100 100 100 100 99 100 100 5 88 96 100 93 100 75 89 100 50 70 100 100 47 92 100 100
100 100 100 93 79 21 17 95 45 100 100 100 100 100 100 100 100 100 100 100 100 100 100 100 100 100 27 0 15 80 5 72 94 79 100 100 100 100 100 100 100 100 100 100 64
100 100 93 17 73 98 79 45 4 89 54 4 100 100 100 100 100 100 100 100 100 100 100 77 100 33 1 65 2 54 78 5 5 5 5 82 100 100 100 100 100 93 7 5 5
100 100 100 21 2 2 4 41 97 56 70 41 97 56 10 24 52 81 100 100 99 59 5 5 12 0 0 0 0 3 1 0 0 2 4 2 92 100 84 68 100 8 2 0 4
100 100 100 100 0 0 0 2 1 3 2 5 4 11 1 2 4 20 5 5 4 5 1 0 0 0 0 0 0 0 0 0 0 0 0 0 0 0 0 21 99 8 2 0 0
100 85 100 100 7 0 0 0 0 0 0 2 0 0 0 0 8 5 6 3 0 0 0 0 0 0 0 0 0 0 0 0 0 0 0 0 0 0 0 0 2 2 1 0 0
100 97 100 100 1 0 0 0 0 0 0 0 0 0 0 0 1 0 0 0 0 0 0 0 0 0 0 0 0 0 0 0 0 0 0 0 0 0 0 0 4 3 0 2 5
100 100 100 100 91 0 0 0 0 0 0 0 0 0 0 0 2 0 0 0 0 0 0 0 0 0 0 0 0 0 0 0 0 0 0 0 0 0 0 0 3 0 0 3 0
98 100 100 100 58 2 0 0 0 0 5 0 0 3 0 5 3 5 4 3 4 0 2 3 1 0 0 0 0 0 0 0 0 0 0 0 0 0 0 0 0 0 0 0 5
88 72 100 100 100 4 1 2 0 0 0 5 0 40 95 93 84 99 100 5 6 88 69 5 5 5 0 0 0 0 0 0 0 2 0 0 0 0 0 0 2 5 0 1 37
6 68 41 100 100 22 1 0 0 0 5 13 0 6 100 100 100 100 100 45 97 98 85 99 76 64 0 0 1 5 5 0 0 0 0 0 0 0 0 0 5 5 35 28 86
6 96 76 100 100 75 46 0 0 0 2 4 0 0 8 100 100 100 100 89 56 100 100 100 57 100 5 5 4 3 5 2 1 0 0 0 0 0 1 3 54 12 67 100 12
9 100 30 100 100 100 66 0 0 0 0 0 0 0 0 17 100 100 100 99 98 100 100 90 28 94 26 5 5 5 5 1 1 0 0 0 0 0 5 5 5 4 5 94 5
41 100 66 100 100 100 34 0 0 0 0 0 0 3 2 4 45 100 100 100 100 100 100 100 100 35 5 5 5 5 45 2 3 0 5 0 0 0 0 0 4 7 29 98 5
41 100 100 100 100 100 19 49 9 0 0 1 0 0 5 27 21 85 100 100 100 100 100 100 95 87 5 60 68 100 18 5 0 5 4 0 0 0 1 2 5 5 22 77 78
100 100 99 100 100 99 87 68 86 0 0 0 0 0 4 99 92 100 100 100 100 100 100 100 96 57 59 64 54 60 5 3 5 5 0 0 0 0 4 0 5 5 6 28 100
96 96 97 99 98 100 89 100 94 74 0 5 2 0 0 32 100 100 100 100 100 100 100 46 8 32 26 90 97 5 5 5 5 5 5 0 0 0 3 2 2 5 71 84 11
100 100 100 100 100 100 100 87 67 92 3 92 24 91 2 3 16 98 100 100 100 100 100 62 5 5 50 13 15 5 6 79 27 45 5 0 0 0 0 5 2 26 39 5 4
100 100 100 100 100 100 100 41 83 51 5 100 100 100 98 28 54 86 91 73 100 99 100 89 32 23 46 5 5 43 96 69 52 78 18 0 0 0 0 5 0 6 8 7 5

GFSSW_prec_cloud_006.txt.gz
Cloud_Cover
11 48 94 100 100 100 100 100 100 100 100 100 100 93 100 99 100 100 100 100 71 60 100 95 8 44 100 5 5 5 15 98 100 100 100 74 56 25 18 58 98 73 98 100 74
86 79 94 100 100 100 100 100 100 100 100 100 100 96 100 100 100 100 100 100 100 99 54 44 75 52 91 5 39 75 100 100 100 100 99 69 94 60 100 100 74 100 13 6 5
98 100 99 61 26 100 100 100 100 100 100 100 99 100 100 99 100 100 100 82 99 87 94 68 97 99 10 100 100 100 100 100 100 11 32 91 86 51 95 84 98 11 24 5 57
100 100 100 52 97 100 100 100 100 100 100 100 99 100 100 100 100 100 100 98 99 90 69 100 71 31 71 100 100 100 100 96 84 64 97 66 46 96 58 54 69 68 57 30 68
97 97 100 100 100 100 100 100 100 100 100 100 100 100 100 100 100 95 100 100 100 100 88 100 87 100 100 100 100 100 45 84 72 69 69 100 100 47 80 100 47 5 11 100 98
100 98 98 100 100 100 100 78 100 100 100 100 100 100 100 100 100 100 100 100 100 100 100 100 100 100 100 100 100 100 89 43 97 61 99 44 84 33 54 80 37 26 99 100 100
100 100 100 100 100 100 98 100 100 100 100 100 100 100 100 100 100 100 100 100 100 100 100 100 100 100 100 100 100 100 100 100 66 63 100 100 100 100 100 100 99 100 100 100 60
100 100 100 100 100 100 100 100 100 100 100 99 58 7 99 100 100 100 90 100 100 100 100 100 98 100 100 100 100 96 82 38 100 100 9 14 100 100 100 100 78 38 17 97 100
100 100 100 100 100 100 100 100 90 100 100 100 100 100 100 100 100 100 100 100 100 100 100 100 100 100 100 100 94 100 100 86 98 6 8 5 69 66 87 84 100 100 100 96 74
97 100 100 85 100 87 100 100 100 93 39 100 100 100 100 100 100 100 100 97 100 100 100 100 95 24 100 58 60 24 51 91 85 14 0 2 11 97 98 34 97 44 12 29 96
30 12 100 100 5 36 96 100 97 100 100 97 10 100 85 100 100 99 100 100 100 100 100 100 100 100 100 100 100 34 5 5 5 4 0 5 1 5 92 4 18 74 5 9 0
100 94 100 96 22 5 6 3 75 56 5 52 99 100 100 100 100 100 100 100 100 100 100 89 100 92 100 98 11 0 0 0 5 2 0 0 0 0 1 4 62 1 0 0 0
100 100 77 100 9 0 0 2 5 5 22 58 28 58 34 95 57 88 61 31 100 100 100 100 100 100 55 3 0 0 0 1 5 4 0 0 0 0 0 0 0 0 0 0 0
5 31 99 99 8 0 0 0 0 0 0 1 0 67 84 7 22 24 5 7 4 3 5 1 0 0 0 0 0 0 0 0 0 0 0 0 0 0 0 0 0 0 0 0 0
0 91 87 89 99 4 0 0 0 0 0 0 0 0 0 0 88 0 0 0 0 5 0 42 0 0 0 0 0 0 0 0 0 0 0 0 0 0 0 0 0 0 0 0 0
0 8 100 88 96 13 5 0 0 0 0 0 0 0 0 0 1 0 0 0 0 0 0 0 0 0 0 0 0 0 0 0 0 0 1 0 0 0 0 0 0 0 0 0 0
2 0 51 79 100 57 10 0 0 0 0 0 0 5 0 4 0 0 0 0 0 0 0 0 0 0 0 0 0 0 0 0 3 5 3 0 0 0 0 0 0 0 0 0 0
5 0 30 71 94 99 43 0 0 0 0 0 2 4 5 0 0 0 0 0 0 0 0 0 0 0 0 0 0 0 1 0 3 5 5 4 0 0 0 0 0 0 0 0 0
96 5 25 66 84 98 100 38 0 0 0 0 0 0 5 5 5 5 4 3 1 0 0 0 0 2 0 0 0 0 5 4 56 5 5 2 4 0 0 0 0 5 0 0 5
100 78 5 77 51 100 100 4 0 0 0 0 0 0 6 34 100 8 26 5 48 6 8 15 25 83 5 0 0 2 2 20 90 6 24 7 3 1 66 5 5 5 5 5 12
100 91 16 69 90 100 100 3 0 0 0 0 0 0 2 56 48 82 1 10 55 86 46 12 96 95 5 4 36 5 5 14 59 5 5 47 5 2 0 2 5 5 0 2 5
100 96 2 64 100 100 100 3 0 0 0 0 0 0 0 6 82 65 11 5 86 77 81 72 99 38 97 4 26 62 98 100 7 31 5 4 2 6 0 0 2 80 8 47 65
100 70 19 83 99 100 16 41 92 57 1 0 1 1 0 2 62 100 69 6 5 5 94 69 3 28 84 7 67 100 99 5 5 21 25 20 2 0 0 0 0 0 0 4 5
100 97 60 100 100 98 33 81 94 99 59 23 2 0 0 0 5 100 100 100 70 5 26 74 6 5 34 99 68 9 25 7 29 77 22 5 4 6 0 0 0 0 2 0 4
45 36 78 100 91 100 100 81 100 100 49 42 4 0 5 4 1 79 100 100 100 100 7 40 6 5 44 22 10 54 72 5 94 91 86 16 5 1 5 4 2 0 0 4 5
93 100 100 100 100 100 94 5 32 100 100 73 92 100 74 5 6 8 95 100 100 96 5 5 14 8 5 8 5 5 35 92 100 100 100 13 4 5 5 5 0 0 2 4 5
96 100 100 100 100 100 100 92 26 57 92 26 100 100 100 100 49 6 0 16 100 100 61 5 82 13 12 10 37 41 100 47 79 100 100 14 4 3 4 0 0 0 0 5 4

GFSSW_prec_cloud_009.txt.gz
Cloud_Cover
78 5 7 100 100 100 100 100 100 100 100 100 100 100 62 92 100 100 100 43 14 5 30 100 70 57 100 100 98 100 88 99 63 100 100 100 100 100 100 73 5 29 10 100 100
3 5 5 60 57 100 100 100 100 100 100 100 100 100 100 100 96 100 100 90 8 18 19 98 100 100 98 53 56 99 94 100 100 99 100 100 100 100 99 29 6 6 34 100 99
4 1 5 5 97 100 75 86 100 100 100 100 100 100 100 100 100 100 100 100 96 100 94 97 86 100 86 97 97 95 100 100 100 100 100 100 100 100 64 26 92 72 39 85 78
5 17 10 7 22 5 94 100 99 97 88 100 100 100 100 100 100 100 100 100 100 96 64 92 100 89 100 96 50 100 100 100 100 100 100 100 100 100 100 78 99 99 100 99 58
87 75 96 59 32 96 100 92 70 52 99 100 100 99 100 100 100 97 100 100 100 92 100 100 99 100 100 100 100 100 100 100 100 100 100 100 96 79 66 70 100 83 100 100 68
100 100 98 33 48 100 86 100 76 47 76 98 100 100 100 100 100 100 100 100 100 100 100 100 100 100 100 100 100 100 100 100 100 100 100 93 92 100 88 100 100 100 100 100 100
99 100 100 100 100 100 100 100 91 100 100 100 100 100 100 100 100 100 100 100 95 100 100 100 100 100 100 100 100 100 100 100 100 100 89 10 84 98 95 11 100 100 100 100 88
93 100 100 100 90 96 100 100 100 45 100 8 10 81 100 100 100 100 100 100 100 100 100 100 100 100 100 100 100 100 100 100 37 85 100 100 86 98 85 5 36 97 95 96 99
35 73 100 100 100 100 100 100 97 88 41 57 73 11 100 100 26 82 87 100 100 100 100 100 100 100 100 100 100 100 98 99 100 100 92 18 94 73 72 35 87 100 100 64 18
2 21 100 100 100 100 100 100 100 100 97 100 92 98 65 100 22 0 19 44 100 100 100 100 100 100 100 100 100 100 91 15 44 98 100 81 47 82 77 22 92 92 12 3 0
3 20 17 89 89 100 100 100 100 100 100 100 100 100 100 100 100 100 100 100 100 100 100 100 100 100 100 100 100 98 100 100 100 88 30 99 42 52 97 19 2 0 0 0 0
0 16 93 3 48 13 56 100 76 100 100 100 100 100 72 99 100 100 100 100 100 100 100 100 100 100 30 69 100 100 100 89 5 5 44 61 5 0 1 0 0 0 0 0 0
0 1 5 83 0 0 0 5 1 0 23 99 64 100 100 99 32 74 100 100 100 100 100 100 100 100 7 100 93 34 32 5 5 5 72 8 0 4 5 0 0 0 0 0 0
0 0 4 30 4 13 0 0 0 4 3 1 7 58 100 100 100 100 92 50 9 91 98 99 62 43 65 77 30 58 5 4 1 5 19 6 0 5 2 2 0 0 0 0 0
0 0 3 5 65 2 70 0 3 0 0 0 2 3 5 14 100 100 25 1 93 100 60 95 56 7 0 1 0 0 0 5 5 5 4 5 3 4 5 54 4 0 0 0 0
0 5 0 16 26 0 98 1 0 2 0 0 0 5 2 5 5 2 0 0 2 3 5 4 0 0 0 1 0 0 3 0 5 5 3 5 5 5 10 64 0 0 4 0 0
18 5 2 52 46 50 88 5 0 0 3 0 0 6 9 0 5 0 0 0 0 2 6 2 0 0 0 0 0 0 1 0 5 7 33 35 5 5 0 3 0 0 5 0 0
8 97 5 5 67 89 91 81 3 0 0 2 0 0 4 0 0 0 0 0 0 0 0 0 0 0 0 0 0 0 2 0 19 96 98 72 5 36 3 4 0 0 0 0 0
100 100 99 98 99 100 100 98 0 0 0 0 9 1 4 5 5 1 0 0 2 2 0 0 0 0 0 0 1 5 1 2 5 1 64 88 84 16 1 3 11 3 4 0 0
98 100 100 97 23 100 100 56 0 0 0 32 2 32 82 72 90 5 2 5 7 9 5 0 0 0 0 0 5 1 2 2 4 5 81 100 96 100 0 50 19 1 4 0 0
100 100 58 37 89 100 97 56 0 0 1 71 99 100 100 100 62 78 6 5 6 37 4 0 0 0 0 3 12 5 6 5 5 6 86 100 97 96 26 7 25 76 4 0 0
100 100 100 43 100 100 38 0 2 2 90 99 76 6 15 100 100 84 99 2 3 5 0 0 0 0 1 1 0 8 17 93 93 23 5 76 100 93 0 5 6 100 0 0 3
100 79 75 99 99 74 15 16 85 97 95 100 99 12 80 32 77 100 78 100 1 5 5 9 0 0 7 6 97 45 100 100 90 73 87 60 15 14 5 0 5 100 0 0 0
95 100 100 94 100 77 96 100 96 100 8 100 100 99 5 0 1 10 100 100 73 0 27 98 0 0 1 73 63 100 99 97 70 100 5 53 40 16 5 23 68 90 2 0 0
91 77 89 79 66 26 63 100 92 100 66 100 100 100 78 4 11 4 90 100 100 9 15 8 2 0 4 4 1 5 6 19 36 90 6 100 96 6 70 97 12 69 0 0 0
88 64 81 92 100 100 100 18 100 100 100 29 80 100 100 97 93 100 100 100 100 100 18 5 0 0 0 5 4 5 5 5 74 100 80 100 100 5 24 61 78 44 0 0 0
80 88 80 100 100 100 100 100 94 100 86 100 100 59 100 89 100 6 92 75 98 100 78 5 5 0 0 5 5 3 18 95 51 97 100 100 100 5 5 9 41 5 4 0 0

GFSSW_prec_cloud_015.txt.gz
Cloud_Cover
100 94 76 5 17 100 100 100 100 100 100 100 100 100 100 96 59 100 100 100 93 96 93 97 98 98 100 96 66 6 15 97 71 8 50 90 100 83 98 92 97 96 100 100 100
31 50 42 5 6 53 100 100 100 100 100 100 100 100 99 58 5 96 100 100 97 64 94 96 100 87 100 100 82 9 7 77 43 63 6 81 97 100 97 100 86 84 100 100 100
0 0 0 5 4 9 29 100 100 100 100 100 100 100 100 100 100 100 100 100 100 100 92 36 42 28 81 57 100 89 22 69 98 77 16 82 100 99 100 100 100 91 100 100 100
5 83 46 6 5 19 5 5 38 10 72 100 100 100 100 100 100 100 100 100 100 100 100 100 99 100 100 89 100 38 70 98 100 98 61 66 99 100 100 100 90 100 100 100 100
6 25 18 99 100 100 100 46 27 50 5 84 100 19 72 100 100 100 100 100 100 100 83 97 91 100 100 100 97 96 100 100 100 90 52 21 96 100 100 43 100 100 100 100 100
4 46 99 100 84 100 100 100 25 5 5 5 5 8 4 10 97 100 100 100 100 100 100 100 99 100 81 99 61 100 100 100 100 100 100 83 100 100 85 62 100 100 100 100 100
0 6 100 88 100 96 100 97 98 45 24 5 5 12 1 64 48 100 14 96 100 100 100 100 95 56 46 96 100 100 100 100 100 100 100 73 100 100 83 98 100 100 100 100 100
0 0 100 100 100 100 100 100 100 100 100 46 14 3 0 1 63 5 92 41 86 98 77 86 21 66 71 96 100 100 100 96 100 95 100 99 100 100 100 100 100 100 7 87 6
0 0 22 58 100 85 100 100 100 100 94 39 76 2 0 89 40 100 85 97 49 39 93 100 100 100 77 100 100 100 57 29 100 100 100 91 100 100 100 100 100 3 83 64 96
0 0 0 0 0 4 5 100 98 80 100 14 10 2 42 100 43 31 28 97 72 91 84 100 93 10 100 100 100 14 3 60 100 100 100 100 100 100 100 100 87 97 12 99 51
0 0 0 0 0 0 3 100 100 100 42 78 93 57 100 100 100 92 93 100 98 5 100 100 11 75 100 100 60 13 99 100 100 100 100 100 100 100 100 100 100 69 6 0 0
0 0 0 0 0 0 4 40 97 24 8 5 2 96 100 100 100 100 100 42 63 84 100 98 9 100 100 97 7 95 100 100 100 100 100 100 100 100 100 96 88 4 5 2 0
0 0 0 0 0 0 0 0 0 0 0 2 1 0 99 96 92 100 100 40 15 85 100 7 94 100 100 100 100 100 100 100 100 100 100 100 81 90 100 99 2 1 21 4 0
0 0 0 0 0 0 0 8 5 53 0 0 0 0 25 100 99 100 100 100 66 28 100 66 100 100 98 43 100 100 100 78 6 17 31 37 100 100 52 0 17 95 12 52 5
0 0 0 8 3 0 2 4 6 93 3 0 0 0 3 0 100 100 100 100 69 95 99 95 100 100 50 100 100 100 100 100 100 100 100 86 35 2 5 2 4 2 4 1 3
0 0 3 6 34 0 3 5 8 6 11 0 0 0 0 0 10 100 100 100 100 100 55 100 100 78 99 100 100 100 100 100 100 100 100 98 98 4 0 2 5 0 0 0 0
0 0 32 38 18 2 20 49 22 26 0 0 0 0 5 5 5 19 100 100 100 100 100 100 100 100 100 100 100 100 100 100 100 97 12 0 3 3 3 4 26 1 0 0 0
0 2 12 15 5 26 76 63 98 0 0 0 0 2 2 8 5 5 5 43 40 91 100 100 98 100 100 100 100 34 90 24 47 5 0 64 2 0 43 31 8 25 0 0 0
1 5 10 0 50 34 96 100 6 0 0 0 0 16 85 95 98 93 25 5 61 67 9 97 46 99 92 100 100 94 74 54 0 5 3 18 24 98 6 14 94 4 48 0 0
69 68 43 5 28 74 100 94 2 0 0 28 11 85 96 93 43 85 34 0 0 0 0 0 3 1 5 0 2 3 28 85 33 24 0 0 4 5 42 60 7 5 0 0 0
37 57 5 6 64 99 100 80 54 2 1 34 47 98 87 100 66 98 1 2 0 2 0 0 0 0 4 0 0 0 12 91 61 0 0 0 0 5 6 77 5 4 5 0 0
98 100 72 100 96 100 99 10 6 5 0 24 78 87 100 100 5 6 0 5 94 82 1 0 0 0 0 3 0 0 0 12 5 2 0 0 1 5 15 31 5 5 0 0 5
98 91 100 100 94 97 53 8 44 5 7 36 33 74 100 100 73 5 5 4 5 5 8 19 0 0 0 0 1 1 0 1 5 1 0 7 14 24 6 47 6 0 0 0 0
77 98 82 100 100 99 100 84 72 14 100 92 63 99 100 100 100 73 6 77 55 9 23 12 0 0 0 14 46 36 7 3 2 0 56 92 19 11 65 13 21 5 0 0 0
43 92 88 79 95 26 23 5 17 23 85 88 92 100 99 100 100 89 70 90 5 5 5 86 16 0 0 0 0 0 0 0 0 5 3 97 6 9 12 40 10 2 5 0 0
47 68 100 100 84 5 62 6 5 5 88 30 90 95 100 100 100 100 100 95 97 4 6 5 45 9 0 0 0 0 0 0 0 5 4 5 5 5 50 62 12 86 44 1 0
46 99 100 100 4 79 96 100 87 91 5 59 94 91 100 100 100 100 98 69 100 76 54 3 5 44 0 0 0 5 65 2 1 5 3 3 100 10 98 55 22 100 22 1 0

GFSSW_prec_cloud_021.txt.gz
Cloud_Cover
32 100 100 100 100 100 100 100 100 87 73 100 100 99 100 36 46 99 100 100 100 80 100 100 98 100 36 99 93 30 5 72 95 10 15 98 58 32 65 73 5 5 21 32 60
7 71 94 100 96 95 100 100 100 100 100 100 100 100 100 100 91 55 100 86 100 100 100 100 100 40 20 96 93 37 5 57 81 27 5 75 71 56 66 6 5 5 58 97 70
0 0 99 100 100 99 42 100 100 100 100 99 96 66 100 89 100 99 100 100 100 100 100 100 100 76 91 100 96 31 9 68 75 63 22 53 100 100 7 7 41 96 52 59 82
0 0 0 0 31 90 83 34 100 100 100 100 98 7 94 100 50 100 100 100 100 100 100 100 100 99 100 100 100 1 39 30 10 90 42 19 26 100 99 24 99 18 76 100 89
7 16 5 0 0 0 0 10 46 100 100 100 100 100 100 47 100 100 100 100 100 100 100 100 100 100 100 100 87 3 80 6 92 100 100 41 5 5 89 92 88 5 79 86 42
2 16 27 27 4 0 0 0 2 4 66 100 100 100 100 80 100 100 100 100 93 100 100 100 100 100 6 93 87 99 99 100 100 100 100 71 5 88 100 100 29 15 72 100 100
0 0 0 11 98 61 2 0 0 0 0 7 28 100 100 100 100 100 100 100 100 100 100 100 100 100 97 100 100 100 100 100 100 100 48 76 64 100 78 7 96 5 5 24 100
0 0 0 0 3 19 100 8 1 0 0 0 4 100 100 100 100 100 100 100 100 100 100 100 100 62 100 100 100 100 100 100 100 100 92 70 100 100 5 5 8 24 5 59 100
0 0 0 0 0 0 0 0 25 0 0 64 90 100 61 71 100 100 100 74 100 98 100 100 100 84 100 100 100 100 100 92 100 100 29 98 100 5 4 5 98 6 30 100 83
0 2 0 0 0 0 0 0 0 0 6 56 62 64 2 20 70 100 26 100 100 98 100 84 81 8 100 100 100 97 37 41 95 95 20 20 39 5 5 5 88 96 100 59 72
16 0 0 0 0 0 59 14 0 0 25 0 0 0 4 48 97 100 100 5 92 37 54 88 65 5 100 96 100 100 56 4 100 84 3 5 28 6 53 100 100 100 100 100 99
1 2 2 0 0 0 88 0 96 85 51 0 0 0 0 100 100 100 100 81 80 28 100 96 2 1 100 100 89 70 5 39 100 95 5 9 2 67 100 100 100 100 100 100 75
0 6 3 0 0 38 4 0 100 100 37 2 0 0 0 23 100 100 100 100 100 100 23 4 48 100 100 93 9 67 70 100 100 45 5 0 20 6 100 100 100 100 100 82 5
0 0 0 0 2 22 21 0 98 100 95 2 0 0 0 0 26 100 100 100 100 100 100 45 100 24 39 1 5 8 100 100 91 24 3 3 23 98 100 100 100 100 6 76 36
0 0 0 0 100 99 0 0 14 100 4 0 0 0 0 0 0 99 98 100 100 100 100 89 100 97 49 90 100 100 100 98 98 3 4 70 100 100 100 100 100 20 20 56 72
1 0 1 27 70 8 0 0 14 58 36 1 4 0 0 0 0 1 1 4 99 37 47 78 79 69 100 92 53 100 24 5 2 3 17 18 36 79 99 90 100 5 79 49 38
1 2 60 98 69 0 0 0 22 41 0 0 8 33 3 0 0 0 5 0 3 4 4 82 52 40 86 19 25 5 43 27 68 93 90 94 13 9 5 47 100 46 19 20 3
5 29 100 90 0 4 40 15 96 2 0 3 94 100 21 0 0 0 0 0 0 5 15 2 6 98 100 95 93 100 100 88 84 100 100 17 21 3 67 100 91 39 42 5 5
1 20 56 43 16 70 83 100 5 0 91 42 98 100 100 100 16 0 0 0 0 66 100 85 43 100 100 100 100 100 100 100 99 65 3 0 100 100 100 100 19 5 5 16 5
82 61 8 96 9 100 100 55 36 22 60 2 8 100 100 100 100 6 0 0 0 3 69 90 96 100 100 100 73 11 9 88 4 3 44 100 100 100 100 75 4 11 5 5 5
47 83 14 100 89 100 100 85 94 40 13 3 5 99 100 100 100 100 34 46 1 2 5 66 5 4 1 63 95 88 15 3 29 37 96 100 100 88 100 45 62 18 5 68 4
41 67 92 100 100 100 99 96 38 12 94 37 9 53 100 100 100 100 100 100 88 2 0 5 0 1 0 2 67 6 24 69 98 100 90 5 80 100 100 96 77 5 5 4 0
96 94 100 100 100 100 100 100 99 6 19 36 5 24 100 100 100 100 100 100 100 99 3 3 0 5 0 0 0 1 78 100 39 3 31 28 82 100 100 41 0 5 48 5 0
49 98 100 100 100 100 100 90 94 41 18 5 8 5 100 100 100 100 100 100 100 100 100 49 0 1 0 2 3 0 0 100 99 96 100 100 51 44 1 0 5 5 5 5 3
22 72 100 100 100 100 100 67 67 53 8 5 5 42 75 100 100 100 100 100 100 100 100 69 3 5 3 0 4 0 0 0 0 31 18 21 0 0 0 0 0 5 6 5 5
86 99 100 93 100 100 100 100 5 98 96 47 38 5 5 100 100 100 100 100 100 100 100 98 3 0 5 1 4 1 0 0 0 0 0 0 3 0 4 2 5 5 5 5 5
98 98 95 28 96 100 100 99 65 58 63 69 47 89 5 100 100 100 100 100 100 100 100 100 8 2 5 5 3 0 0 5 0 0 0 12 69 7 54 3 5 5 25 5 5

GFSSW_prec_cloud_024.txt.gz
Cloud_Cover
7 71 100 100 100 100 100 100 99 100 100 90 99 99 100 84 92 100 100 100 100 78 100 100 100 100 98 100 100 32 9 77 100 100 5 5 19 16 6 61 42 5 53 78 11
13 79 100 100 100 100 100 100 100 100 100 72 96 100 97 100 99 60 100 100 100 100 100 100 100 100 62 100 18 5 5 67 100 61 5 6 35 43 5 10 66 45 47 15 42
4 100 100 100 100 100 100 100 100 100 100 100 100 74 100 46 77 97 100 100 100 84 92 100 100 27 100 71 99 100 79 64 69 100 5 65 98 20 5 87 100 65 96 13 87
1 8 60 64 91 0 2 100 100 100 100 100 100 100 76 55 68 100 100 100 100 87 23 100 100 38 57 14 99 6 67 97 70 69 9 100 100 56 97 65 91 91 92 8 98
0 1 24 0 0 2 2 2 0 100 100 100 100 100 100 78 100 100 100 100 100 100 100 99 99 100 65 83 78 23 65 42 21 93 100 100 59 8 88 100 13 65 25 19 68
8 0 3 1 8 0 0 0 26 0 58 88 88 59 100 100 100 100 100 100 100 84 100 100 100 100 78 5 14 29 7 15 33 100 100 100 8 24 100 6 5 13 73 93 86
4 34 18 7 0 42 39 83 100 9 58 3 5 99 95 65 100 100 100 100 100 100 98 100 100 100 75 5 5 5 28 90 100 100 100 92 28 100 90 86 20 100 42 41 34
0 0 0 3 90 100 50 0 0 5 47 100 10 100 46 100 41 54 100 100 100 100 40 100 100 94 53 8 5 5 12 84 100 100 99 49 87 100 100 54 50 37 40 4 5
0 0 0 0 8 58 1 0 0 0 47 94 89 97 24 17 20 0 4 11 100 100 90 100 100 61 16 88 100 100 100 100 100 100 90 97 100 100 91 14 5 3 5 5 5
0 0 2 0 0 0 0 0 0 0 1 74 96 58 0 0 0 0 1 30 87 100 64 100 68 88 100 100 100 100 100 100 98 100 83 16 14 100 100 18 1 5 5 5 5
44 0 0 6 0 0 53 0 0 2 0 0 0 0 0 0 0 0 1 0 6 100 19 11 18 2 100 100 96 100 96 86 98 100 73 5 4 52 85 2 3 5 9 5 5
0 1 33 1 0 0 93 0 22 41 36 0 0 0 0 0 0 0 0 0 4 5 100 76 2 90 44 15 4 5 5 22 100 100 4 4 0 43 5 0 5 5 37 27 0
0 0 0 0 0 42 5 0 0 13 24 1 0 0 0 0 0 0 0 0 1 32 72 3 20 100 45 11 5 23 2 100 100 59 0 0 0 4 16 18 44 18 98 4 82
0 1 0 0 0 39 15 0 5 7 88 2 0 0 0 0 0 0 0 0 0 2 100 3 23 9 14 12 85 8 43 100 100 47 0 0 1 3 77 56 89 7 15 21 98
0 24 13 45 100 98 0 0 0 1 10 0 57 3 0 0 0 0 0 0 0 0 95 36 100 99 8 11 89 4 100 100 100 4 0 0 0 100 5 35 9 100 63 34 49
3 9 9 51 100 21 1 0 1 60 41 2 93 86 23 11 0 0 0 0 0 0 4 6 39 35 11 100 100 100 100 100 75 0 0 20 40 100 5 81 77 7 1 5 52
0 0 64 100 96 15 6 1 49 97 0 29 50 100 100 36 3 42 0 0 0 0 0 34 97 46 51 94 52 53 44 9 0 0 1 100 97 100 9 83 8 5 2 44 6
0 1 8 97 66 87 44 26 96 0 0 12 2 72 100 100 70 91 76 1 0 0 0 78 100 100 99 94 97 96 99 100 96 92 93 100 100 52 5 94 99 5 20 88 5
0 0 26 93 97 88 100 100 3 14 13 28 2 64 100 100 100 60 96 97 34 0 0 0 36 100 100 100 100 91 5 62 77 100 100 100 99 5 16 100 100 8 100 5 5
72 92 86 100 99 100 52 85 3 43 5 85 4 42 100 100 100 100 100 100 100 15 0 0 1 5 100 100 88 16 74 3 4 54 11 6 62 99 100 100 100 27 74 8 5
3 18 14 98 100 100 100 67 42 5 6 17 5 5 100 100 100 100 100 100 100 100 1 0 0 0 62 100 100 86 12 0 8 3 4 90 100 68 94 100 55 11 97 32 6
41 10 5 100 100 100 100 88 23 21 9 11 5 0 100 100 100 100 100 100 100 100 88 0 0 0 0 100 100 98 6 8 6 77 100 100 100 100 100 100 71 93 100 33 5
25 15 62 100 100 100 100 41 70 86 14 37 61 12 98 100 100 100 100 100 100 100 100 20 0 0 0 1 97 22 99 100 81 0 28 95 72 97 100 100 89 100 97 5 1
22 90 47 100 100 100 100 91 98 77 5 10 13 5 46 100 100 100 100 100 100 100 100 96 4 0 0 1 64 89 5 3 20 58 100 100 86 100 100 100 100 100 6 5 3
33 80 99 57 100 100 100 48 52 68 35 30 11 5 45 100 100 100 100 100 100 100 100 97 5 0 0 0 0 0 0 0 62 100 100 100 93 100 100 99 36 45 5 5 5
63 71 74 100 89 100 68 21 5 5 63 98 85 89 58 47 100 100 100 100 100 100 100 100 10 0 0 0 0 0 0 0 0 72 100 12 44 100 68 5 5 6 67 6 5
22 38 100 92 88 76 17 81 32 88 21 32 23 75 5 5 47 100 100 100 100 100 100 100 62 16 0 0 0 0 0 0 0 1 4 19 88 26 5 3 5 33 78 68 5

GFSSW_prec_cloud_030.txt.gz
Cloud_Cover
100 100 78 84 100 76 100 100 100 100 100 100 100 100 100 100 100 100 100 100 100 100 100 99 100 100 100 100 100 92 100 100 100 100 100 12 17 97 18 17 59 26 57 45 5
0 0 1 0 6 17 60 85 100 100 100 64 88 93 100 100 100 100 100 100 100 100 100 100 100 100 100 98 66 89 62 100 100 30 64 8 45 53 8 47 32 7 5 9 13
0 34 34 9 99 42 0 2 38 100 100 30 50 75 100 100 100 100 100 100 100 100 100 100 98 94 60 100 99 97 80 28 66 89 97 13 19 84 98 100 100 5 31 72 94
76 0 0 0 44 98 100 57 11 5 99 100 100 54 100 99 49 78 100 100 100 100 100 100 100 70 18 48 60 24 5 52 26 89 100 71 89 92 97 99 87 5 5 5 5
98 0 0 0 0 4 6 60 84 52 17 100 100 100 100 100 13 76 100 100 94 100 100 95 100 57 4 44 36 59 5 5 43 5 94 95 62 100 99 100 11 5 5 28 23
62 0 0 0 0 63 91 79 26 0 13 89 45 100 100 100 100 9 6 100 100 100 99 36 75 99 5 5 4 5 5 21 73 34 92 98 100 100 100 100 8 5 5 39 5
36 11 0 0 0 0 1 0 0 0 2 39 23 67 60 100 100 91 5 8 100 99 100 5 4 83 97 20 0 2 1 4 4 58 68 99 99 100 65 97 5 5 5 3 4
2 0 0 0 0 0 0 0 0 0 0 16 77 93 12 60 99 100 62 78 80 19 3 1 5 0 4 49 8 2 5 4 95 73 78 53 5 83 19 95 3 0 5 83 6
50 0 0 0 0 0 0 0 0 0 0 12 50 37 1 3 68 60 18 5 8 5 40 4 3 3 2 2 35 82 84 91 38 90 6 8 2 39 5 95 0 0 8 92 100
82 40 5 0 0 0 0 0 0 0 0 0 0 2 0 0 0 4 1 5 0 0 0 0 3 0 0 4 57 99 17 45 18 90 5 58 44 20 5 17 0 25 95 100 100
5 5 5 4 8 0 0 1 1 0 3 0 0 0 0 0 0 0 0 0 0 0 0 0 0 0 92 71 0 0 5 4 5 17 28 6 8 0 4 2 3 100 100 100 96
49 5 10 6 1 0 0 2 1 19 29 0 0 0 0 0 0 0 0 0 0 0 0 0 0 2 89 1 0 1 2 0 5 81 4 6 4 5 15 2 4 72 6 80 3
1 0 0 0 0 13 2 1 10 95 59 0 0 0 0 0 0 0 0 0 0 0 0 0 0 29 3 0 0 0 0 2 4 100 87 4 1 0 0 1 0 0 0 0 0
0 0 0 0 10 4 6 4 18 74 44 0 2 2 20 0 0 0 0 0 0 0 0 0 0 0 0 0 0 0 0 7 91 100 2 88 18 0 3 0 0 0 0 0 0
1 1 27 0 8 5 5 14 34 22 2 3 25 35 78 13 42 58 0 0 0 0 1 0 0 0 0 0 0 0 0 0 4 0 3 2 28 0 3 0 0 0 5 1 0
18 74 3 43 100 47 63 3 63 88 50 49 99 84 97 100 99 27 5 0 0 0 4 0 0 0 0 0 0 0 0 0 0 0 0 0 65 4 53 25 0 0 5 2 5
0 0 13 73 93 99 71 74 77 84 84 68 100 100 90 96 98 5 10 94 2 0 1 3 0 0 0 0 0 0 0 0 1 1 2 8 72 43 23 0 0 1 5 24 26
0 0 20 45 84 100 92 80 76 100 100 100 100 56 92 99 82 5 52 60 76 0 0 40 5 0 0 0 0 0 0 0 1 4 12 50 4 98 31 89 0 16 98 71 91
0 17 74 95 5 19 77 100 100 100 68 100 92 20 99 100 97 42 100 99 95 12 24 100 14 1 0 0 0 0 0 0 0 5 26 42 3 100 100 100 62 100 88 100 96
0 5 11 95 52 94 94 100 100 99 98 90 100 100 100 100 100 100 100 100 98 32 100 100 76 78 0 0 0 0 0 0 0 16 97 13 26 100 100 41 57 92 99 100 38
5 41 2 6 100 100 100 100 100 100 84 78 98 98 100 100 91 81 100 100 100 99 8 96 66 100 78 0 0 0 0 0 0 5 66 12 100 100 100 38 100 89 100 100 95
5 58 5 1 85 100 87 100 98 100 100 96 76 88 100 100 97 100 100 100 100 100 76 75 97 100 78 0 0 0 0 0 0 1 7 50 100 100 100 100 100 100 100 100 100
5 7 7 17 81 69 59 100 100 92 86 80 83 100 98 100 96 100 100 100 100 100 100 81 72 90 100 85 0 0 0 0 2 4 6 92 100 100 10 100 100 100 100 27 100
19 37 94 45 100 100 72 15 30 51 25 81 87 92 94 92 91 92 100 100 100 100 100 100 100 86 100 15 0 0 0 0 4 28 48 92 87 99 14 100 100 89 99 100 100
65 99 100 100 94 100 74 87 97 96 16 80 99 99 99 73 89 100 85 100 100 100 100 97 20 98 100 64 0 5 0 0 3 100 25 72 100 100 4 90 100 100 100 100 93
74 100 100 100 100 100 95 100 100 100 86 78 98 97 92 98 100 100 100 100 100 100 100 92 60 100 100 11 5 0 0 0 5 83 38 46 62 5 16 100 100 100 100 100 99
99 98 100 100 100 100 99 95 93 100 74 100 100 99 92 100 99 74 100 75 100 100 100 100 100 28 100 100 53 2 8 98 22 92 100 92 65 5 29 100 100 100 100 100 16

GFSSW_prec_cloud_033.txt.gz
Cloud_Cover
1 0 0 0 0 2 5 100 100 100 91 96 100 100 100 100 100 100 100 100 100 100 100 100 100 100 100 100 100 100 67 100 100 100 100 100 98 74 79 100 100 100 83 7 1
66 75 45 13 0 0 21 96 10 100 99 99 100 100 100 100 100 100 100 100 100 100 100 100 100 100 100 100 100 100 100 100 100 99 96 99 100 98 74 99 71 64 90 96 98
0 3 6 0 59 0 0 100 100 98 100 100 86 88 100 82 89 100 100 100 93 100 100 100 100 100 100 100 100 100 42 100 100 100 98 98 100 100 98 85 100 75 54 89 100
0 0 0 0 44 0 11 15 93 100 100 100 100 100 100 99 59 14 79 100 100 100 100 100 100 100 100 100 100 100 60 71 98 100 100 88 100 100 82 99 32 84 7 5 6
0 0 0 0 0 0 0 0 0 0 68 74 41 100 100 100 85 72 62 79 85 100 100 100 100 100 100 100 100 96 100 58 5 9 48 84 38 35 58 90 18 7 54 67 87
30 0 0 0 0 0 0 0 0 0 0 0 4 2 74 100 100 87 5 50 5 8 33 39 38 100 100 100 87 100 87 18 29 39 52 99 100 100 83 71 5 4 5 10 27
35 0 0 0 0 0 0 0 0 0 0 0 88 10 0 1 0 3 11 75 5 5 68 70 94 91 36 10 100 36 83 93 41 44 60 90 5 28 88 6 5 5 5 5 59
68 0 0 0 0 0 0 0 0 0 0 3 52 0 2 0 0 0 0 6 88 100 92 7 4 1 5 23 21 7 43 5 100 100 51 100 11 1 5 6 5 4 5 5 90
24 0 0 0 0 0 0 0 0 0 0 0 1 3 0 0 0 0 0 0 0 0 38 31 5 0 1 1 5 4 25 100 100 90 87 100 0 0 71 4 1 2 3 4 33
0 0 0 0 0 0 0 0 0 0 2 2 1 5 0 0 0 0 0 0 0 0 0 0 1 3 0 0 0 80 70 17 45 100 100 98 17 40 8 0 0 72 28 4 100
0 0 0 0 0 0 0 0 1 0 71 4 1 0 0 0 0 0 0 0 0 0 0 0 0 0 0 14 80 34 2 5 85 100 99 5 8 100 47 5 0 5 47 5 100
0 8 15 0 0 0 0 2 5 2 3 0 0 0 0 0 0 0 0 0 0 0 0 0 0 0 5 0 0 0 0 3 3 39 95 92 27 97 37 1 2 4 0 0 3
4 1 0 0 0 3 2 5 5 5 36 0 0 0 0 0 0 0 0 0 0 0 0 0 0 1 0 0 0 0 0 0 0 2 69 85 76 3 6 5 0 0 0 4 0
0 1 55 0 2 4 14 5 5 65 17 0 28 11 20 0 0 0 0 0 0 0 0 0 0 0 0 0 0 0 0 0 0 5 44 47 17 0 1 4 2 0 85 13 0
0 1 0 0 1 5 9 44 23 74 12 67 94 54 70 25 92 99 54 0 0 0 0 0 0 0 0 0 0 0 0 0 0 0 0 0 3 5 0 0 0 68 3 2 0
0 0 0 6 60 3 3 50 82 87 88 85 99 100 100 100 95 100 89 77 5 2 0 0 0 0 0 0 0 0 0 0 5 2 2 0 3 0 3 1 5 24 6 5 0
0 0 0 35 92 42 36 82 91 98 100 100 60 58 51 100 100 100 100 100 100 84 0 0 3 4 0 0 0 0 0 0 1 0 0 0 4 0 66 0 3 0 4 3 0
0 9 31 100 80 78 72 100 100 100 100 100 100 100 97 100 46 100 85 100 100 100 8 0 0 0 0 0 0 0 0 0 0 0 0 0 1 0 4 0 0 0 0 0 24
10 18 92 6 58 55 100 100 100 100 98 62 83 99 100 100 99 100 100 98 42 79 100 98 3 1 2 0 0 0 1 0 0 0 0 2 100 89 1 0 0 0 0 2 5
15 74 67 3 1 44 99 98 100 100 100 100 100 100 100 100 88 100 100 36 10 22 100 35 66 1 30 4 2 0 0 0 0 0 1 27 65 100 74 0 0 5 4 27 94
6 97 32 5 43 46 34 64 99 86 98 100 100 100 100 96 100 100 100 10 84 97 100 96 25 46 23 37 0 0 17 0 0 0 1 61 100 89 2 0 32 67 10 99 100
17 94 98 5 98 45 54 39 38 99 100 100 94 100 100 100 100 100 100 100 100 66 53 90 99 93 86 100 5 0 2 2 0 0 6 99 100 5 1 5 85 99 100 100 100
5 48 43 50 100 63 16 5 100 100 96 100 100 98 100 100 100 100 94 100 100 100 100 45 32 89 84 93 78 72 5 5 5 77 67 93 100 6 19 64 100 94 99 100 100
34 62 98 100 100 100 46 44 96 100 72 100 100 100 100 100 100 100 100 100 100 100 100 96 50 88 100 86 96 52 20 30 44 98 98 10 90 5 100 100 97 100 100 100 100
57 71 100 100 100 100 100 98 100 100 96 100 100 100 100 100 100 100 95 100 100 100 100 100 60 71 100 100 100 80 100 100 100 92 100 92 100 90 100 84 70 100 100 100 100
45 68 100 100 100 100 100 100 96 77 99 92 98 100 99 97 100 99 100 100 100 100 100 100 60 100 100 100 100 100 100 100 100 80 100 100 100 100 100 27 88 100 100 100 100
96 39 100 100 100 100 100 100 100 98 36 100 100 97 91 73 91 88 84 100 100 100 100 100 89 100 100 100 93 100 100 100 100 100 64 35 100 70 100 100 100 100 100 97 100

GFSSW_prec_cloud_036.txt.gz
Cloud_Cover
0 68 1 2 100 100 100 100 99 100 96 100 99 100 100 100 100 100 100 100 100 100 100 100 100 100 100 100 100 100 96 100 100 100 100 100 100 100 100 100 100 100 100 100 100
0 11 2 0 0 4 46 14 100 100 91 100 56 87 100 100 100 100 100 100 100 100 100 100 100 100 84 100 100 100 100 100 100 100 100 100 100 100 100 99 78 100 100 100 98
10 51 16 1 7 49 0 0 6 54 100 95 96 99 100 100 100 100 100 100 99 84 53 79 100 100 100 100 100 100 100 100 100 100 100 100 100 100 97 98 100 97 100 62 27
0 2 1 16 70 0 0 0 0 0 0 4 100 100 100 100 100 100 10 100 100 100 100 100 100 100 100 100 100 100 100 98 99 100 100 100 100 100 99 80 98 98 66 25 5
0 0 0 0 0 0 0 0 0 0 0 0 3 6 11 100 85 34 74 97 100 100 100 100 100 100 100 100 100 100 100 100 100 100 83 82 100 100 100 100 100 100 71 5 64
0 0 0 0 0 0 0 0 0 0 0 0 0 0 15 6 94 48 4 5 100 100 100 74 70 100 86 99 100 100 99 63 61 58 58 100 100 100 97 73 63 6 5 5 74
0 0 0 0 0 0 0 0 0 0 0 0 0 0 0 14 92 98 5 98 99 7 5 27 99 100 62 13 32 100 97 93 75 100 100 100 43 52 100 99 6 5 5 28 28
0 0 0 0 0 0 0 0 0 0 0 0 3 1 0 0 0 99 76 34 100 100 44 39 28 7 0 0 5 53 99 5 100 100 100 100 25 100 83 53 3 5 33 100 97
0 0 0 0 5 3 0 0 0 0 0 0 2 0 0 0 0 1 33 85 3 78 100 100 66 18 0 0 4 5 3 29 100 100 70 59 8 58 14 5 0 2 3 23 4
0 0 0 0 0 0 0 0 0 0 0 5 2 4 0 0 0 0 0 0 0 0 0 7 6 1 3 1 0 38 93 52 16 89 39 66 19 54 11 62 6 100 17 2 3
6 22 5 1 0 0 0 0 0 0 37 12 34 5 0 0 0 0 0 0 0 0 0 0 0 0 0 0 23 100 46 1 0 18 8 21 4 3 5 92 6 9 6 11 94
32 44 32 0 0 0 0 0 5 2 2 0 0 0 0 0 0 0 0 0 0 0 0 0 0 0 0 0 0 0 0 0 28 99 69 92 12 0 5 60 41 30 40 75 3
0 0 0 0 0 0 0 40 2 4 19 0 0 0 0 0 0 0 0 0 0 0 0 0 0 0 0 0 0 0 0 0 0 2 2 2 1 0 37 29 65 5 40 3 1
0 0 0 0 3 0 79 51 3 54 0 6 1 23 0 0 0 0 0 0 0 0 0 0 0 0 0 0 0 0 0 0 0 0 0 0 6 0 11 0 3 3 5 3 0
0 0 0 0 0 5 5 3 16 63 80 100 100 62 97 29 48 98 52 0 0 0 0 0 0 0 0 0 0 0 0 0 0 0 0 0 2 4 0 0 0 0 0 0 0
0 0 0 3 15 50 79 6 22 85 100 100 68 100 34 95 64 100 31 33 63 17 0 0 0 0 0 0 0 0 0 0 0 0 8 0 0 0 0 0 0 0 0 3 95
0 0 9 0 17 4 66 89 100 100 100 100 100 100 100 98 97 100 65 100 66 100 35 0 0 0 0 0 0 0 0 0 0 0 0 0 0 0 0 0 0 0 0 1 10
0 22 1 6 5 33 33 99 84 84 43 96 100 90 87 34 50 100 16 77 97 100 100 100 44 0 0 0 0 0 0 0 0 0 0 0 0 0 0 0 0 0 1 1 0
0 2 4 4 5 19 98 98 93 99 98 100 6 15 33 89 73 82 35 59 99 100 63 45 17 1 0 0 2 0 0 0 0 0 0 0 0 0 1 0 3 0 0 0 0
0 0 58 78 42 87 60 35 100 100 97 100 100 100 99 90 83 94 13 13 78 50 0 26 8 5 0 0 0 1 0 0 0 0 0 0 0 0 15 4 0 0 0 0 0
0 58 55 100 100 100 100 87 100 78 72 34 36 100 98 75 46 100 75 100 46 5 0 68 10 2 0 0 0 3 2 2 0 0 0 0 0 88 96 32 0 0 0 2 0
0 74 33 52 100 100 100 99 7 17 100 70 96 99 100 100 90 5 59 55 45 98 5 99 84 34 5 27 30 99 19 13 0 0 0 0 0 0 4 1 0 0 1 62 1
5 6 32 22 100 100 100 68 96 100 97 62 74 100 48 71 60 100 100 96 42 80 91 100 28 54 88 36 36 90 74 5 1 34 0 0 0 15 16 0 0 0 4 86 93
36 22 70 41 100 100 100 46 96 92 98 87 69 100 100 100 99 100 98 100 91 100 100 85 70 70 97 97 98 100 97 20 21 2 0 1 95 15 13 14 13 92 95 87 98
84 39 91 74 85 90 84 61 99 100 100 100 33 98 100 100 100 96 36 100 92 93 100 95 68 82 100 100 100 100 68 100 100 8 3 9 85 86 13 90 7 5 88 91 100
67 100 15 52 100 92 72 100 100 100 100 77 98 100 100 100 100 75 93 61 100 100 100 98 100 81 100 100 100 100 31 53 100 57 5 93 100 95 83 6 4 100 97 100 100
100 100 100 19 99 98 100 99 96 100 36 98 100 99 87 77 76 22 5 6 95 89 95 100 100 100 100 100 100 99 0 36 2 98 11 100 100 35 52 100 68 100 30 97 100

GFSSW_prec_cloud_042.txt.gz
Cloud_Cover
33 0 0 4 1 3 0 5 100 100 100 100 100 100 100 53 95 100 100 100 100 100 100 98 100 100 100 100 100 67 7 96 100 100 100 100 95 100 97 97 59 100 31 88 71
95 77 43 0 0 0 3 46 100 86 100 94 100 100 100 100 98 100 100 100 100 100 100 100 100 100 100 100 100 20 69 100 100 100 100 100 100 100 99 99 89 100 100 99 100
100 100 73 46 66 0 0 0 12 8 11 93 100 100 100 100 100 100 100 100 100 100 100 100 100 86 100 100 100 100 100 100 100 100 100 100 100 100 100 100 100 99 100 100 100
0 0 0 0 0 0 0 0 0 0 0 0 100 100 100 100 70 95 100 100 100 100 100 100 100 98 100 100 100 100 100 100 100 100 100 100 100 100 100 100 100 100 100 100 98
8 0 0 0 0 0 0 0 1 0 0 0 10 100 100 100 100 100 100 100 100 100 93 100 100 100 45 98 100 50 78 98 100 100 100 100 100 100 100 100 100 100 100 100 93
0 0 0 0 1 0 0 1 17 33 53 3 4 100 80 100 100 100 100 100 100 100 100 100 100 100 100 99 100 81 74 72 84 100 100 100 100 100 100 100 100 100 100 100 100
0 0 0 0 0 0 0 0 1 8 9 33 37 100 100 90 100 100 100 100 100 100 100 100 100 100 62 98 100 100 19 5 10 100 100 100 87 100 100 100 100 100 60 18 9
0 0 0 0 0 0 0 0 0 0 36 21 95 99 87 0 24 100 100 100 100 100 89 23 24 90 98 41 36 48 83 15 99 100 100 100 28 100 100 100 73 11 5 5 5
11 0 0 44 9 1 0 0 0 0 0 8 34 37 20 0 0 61 100 100 100 100 100 98 3 0 4 9 27 5 6 7 100 100 100 100 94 100 100 96 4 2 5 7 39
1 1 39 52 10 0 0 0 0 0 0 0 3 50 0 1 1 0 26 3 24 100 100 100 94 11 6 0 0 72 97 100 100 100 100 79 0 14 32 14 0 3 24 40 97
1 0 0 0 3 1 24 20 1 0 0 0 0 0 0 0 0 1 0 0 0 36 100 100 94 9 86 60 99 1 0 3 64 79 99 9 0 5 5 0 0 5 5 6 79
0 0 0 8 2 0 14 0 3 4 4 0 20 5 21 0 0 0 0 0 0 0 0 0 0 19 0 0 0 0 0 1 5 100 100 100 5 0 0 0 1 5 9 100 3
0 0 4 2 0 0 0 0 0 0 0 27 95 84 6 10 0 0 0 4 2 0 0 0 0 0 0 0 0 0 0 12 46 100 100 74 0 0 24 2 13 5 97 85 0
0 0 6 13 0 0 0 0 0 2 95 100 100 100 85 2 59 1 0 0 1 5 0 0 0 0 0 0 0 0 0 0 3 0 0 52 0 0 64 88 90 100 99 2 5
0 0 4 6 16 0 0 0 0 6 87 71 100 100 100 100 93 100 83 0 0 0 3 0 0 0 0 0 0 0 0 0 0 0 0 0 0 0 6 62 100 100 5 0 0
0 0 14 11 1 0 0 0 19 3 43 52 100 100 100 98 100 100 99 83 38 71 3 5 6 0 0 0 0 0 0 0 0 0 0 0 0 0 0 5 45 2 0 0 0
0 2 30 1 5 3 0 0 57 4 5 9 46 100 100 100 100 92 100 98 58 44 17 98 62 5 4 0 0 0 0 0 0 0 0 0 0 0 0 0 0 0 0 0 0
5 5 25 2 5 5 0 1 4 4 4 4 3 98 100 100 100 100 100 100 100 86 100 98 43 9 40 4 0 0 0 0 0 0 0 0 0 0 0 0 0 0 0 0 0
2 6 48 16 71 49 5 5 5 12 98 5 2 0 46 100 72 100 100 100 100 94 29 97 9 89 12 47 5 2 0 0 0 0 0 0 0 0 0 0 0 0 0 0 0
34 12 31 55 86 34 5 15 5 4 10 93 29 33 50 4 86 47 100 100 97 31 2 0 0 4 100 91 6 5 3 0 0 0 0 0 0 0 0 0 0 0 0 0 0
4 4 48 58 34 96 49 84 5 4 88 38 33 32 89 10 11 45 100 100 100 53 3 0 2 0 3 90 5 80 9 2 0 0 0 0 0 0 0 0 0 0 0 0 0
0 2 7 90 66 82 26 68 5 5 26 40 5 30 5 83 8 93 90 6 6 66 62 2 5 15 0 0 14 100 4 4 0 0 0 0 0 0 0 0 0 0 0 0 0
74 4 5 7 98 100 17 5 5 5 34 38 18 10 5 43 60 33 100 100 100 78 57 33 18 5 1 1 5 98 99 0 0 0 0 0 0 0 0 0 0 5 1 0 0
78 65 28 5 52 51 100 12 11 5 5 6 18 82 34 5 4 5 5 51 96 100 100 100 100 20 5 15 49 35 82 21 2 0 0 0 0 9 0 5 4 10 0 0 0
20 5 16 20 45 30 100 38 100 87 6 5 25 11 58 78 7 5 5 5 5 63 100 100 99 20 81 83 69 6 42 89 88 4 1 0 0 10 1 15 5 3 0 0 0
10 94 59 100 16 14 99 83 100 95 100 25 50 5 42 40 98 90 32 10 5 7 5 60 99 95 100 100 100 89 96 100 92 5 0 0 5 100 5 0 0 0 0 0 0
14 25 99 61 35 59 56 100 100 100 58 77 55 50 5 100 100 100 13 32 53 39 90 100 100 98 100 100 98 53 100 100 5 0 0 0 30 100 3 5 2 0 0 0 5

GFSSW_prec_cloud_045.txt.gz
Cloud_Cover
100 100 100 51 75 16 23 0 0 0 35 100 59 5 5 100 100 100 100 100 100 100 100 100 100 100 100 100 100 83 6 68 100 100 100 89 99 100 100 100 100 98 7 86 100
98 52 0 0 0 0 0 0 0 0 0 2 0 0 5 65 100 100 100 100 100 100 100 100 100 98 82 100 100 7 97 100 100 100 100 100 77 73 100 100 100 93 15 100 79
71 72 23 0 0 0 0 0 0 0 0 0 0 0 2 42 100 100 100 100 100 100 100 100 100 100 98 100 100 100 100 100 100 100 100 100 100 100 100 75 20 15 16 100 10
94 2 0 0 1 4 3 0 0 0 0 0 0 35 0 5 60 100 100 100 100 100 100 100 100 100 100 100 100 100 100 100 100 100 100 100 100 100 100 100 100 99 100 59 99
92 16 0 0 0 2 3 17 27 0 2 6 15 86 70 6 91 90 100 100 100 100 99 100 100 100 100 99 100 29 100 100 100 100 100 100 100 100 100 100 100 100 100 100 81
1 1 0 0 0 2 0 0 1 10 93 100 100 99 78 66 61 100 57 99 100 100 100 100 100 100 100 100 100 41 81 90 100 100 100 100 100 100 100 100 100 100 100 99 39
0 0 0 0 0 0 0 0 0 34 96 100 100 67 63 12 44 100 100 100 100 100 100 100 100 100 59 100 100 100 10 54 18 99 100 100 100 100 100 100 100 100 100 57 13
0 0 4 3 100 49 0 0 0 20 19 100 99 64 28 0 0 45 0 58 100 100 100 100 100 94 97 44 90 99 30 4 70 65 100 100 53 100 100 100 100 100 86 5 8
7 13 75 98 100 100 41 25 0 0 0 21 7 34 23 0 0 0 0 0 2 90 100 100 100 98 90 83 62 53 6 5 98 100 100 100 93 100 100 100 24 37 7 15 62
1 0 50 48 30 19 2 0 0 0 0 0 0 18 0 1 0 0 0 0 0 0 76 100 52 100 96 46 1 4 50 100 89 100 100 88 4 73 100 100 7 4 5 30 74
3 0 0 0 0 4 28 5 2 0 0 0 0 0 1 0 0 2 26 0 0 0 0 100 85 50 100 100 100 16 5 7 86 100 99 6 4 4 2 4 1 5 24 73 96
0 0 0 0 0 0 0 0 0 0 0 0 0 2 5 4 0 1 86 3 1 0 0 0 1 81 100 100 70 71 8 3 4 71 62 68 0 5 1 4 4 90 91 29 51
0 0 6 1 0 0 0 0 0 0 0 0 0 0 5 15 16 0 2 1 4 0 0 0 0 0 13 49 59 63 5 87 23 13 3 2 0 0 4 5 39 84 100 100 44
1 9 0 64 0 0 0 0 0 0 3 0 0 1 95 84 74 78 2 4 2 0 0 0 4 0 0 0 4 51 15 88 81 100 4 1 0 0 0 0 5 99 100 93 19
37 98 56 61 11 2 0 0 0 0 0 0 0 48 84 99 100 95 50 14 27 4 2 0 1 1 0 0 0 0 90 21 5 5 5 0 0 5 5 0 6 100 99 5 0
38 58 99 0 40 7 0 0 0 0 1 0 0 0 99 100 100 100 100 48 21 25 27 0 0 20 5 0 0 0 0 0 0 0 0 3 0 0 0 22 6 54 0 0 3
38 22 79 0 0 0 1 0 1 5 0 2 0 0 96 98 100 100 100 100 24 2 1 4 2 0 5 4 0 0 0 0 0 0 0 0 0 0 0 0 1 0 0 0 0
5 3 0 0 0 0 6 4 3 8 5 5 1 0 0 100 100 100 100 100 100 99 100 91 4 0 3 47 6 3 0 0 0 0 0 0 0 0 0 0 0 0 0 0 0
1 0 0 5 0 4 61 5 7 49 5 5 3 5 0 26 100 100 100 100 100 100 100 100 100 100 40 83 100 48 1 0 0 0 0 0 0 0 0 0 0 0 0 0 0
61 13 0 5 4 9 50 5 5 5 6 5 89 5 5 5 18 100 72 100 100 100 100 100 84 100 99 98 98 100 86 2 0 0 0 0 0 0 0 0 0 0 0 0 0
0 0 3 5 5 5 28 8 5 27 38 72 33 16 30 70 4 47 97 55 100 100 61 86 82 92 90 30 27 100 100 11 0 0 0 0 0 0 0 14 2 0 0 0 0
13 0 1 5 5 22 7 36 5 5 58 37 33 5 77 5 4 5 77 21 71 100 100 41 40 96 9 5 5 5 100 85 5 0 0 0 0 0 0 4 0 2 0 0 0
100 82 0 4 19 41 9 5 7 36 6 40 63 7 76 70 12 5 6 5 45 64 80 58 53 5 98 9 8 1 3 49 5 0 0 0 0 0 1 2 0 4 0 0 0
79 47 2 5 5 12 84 12 54 67 89 86 21 42 94 5 8 25 5 14 100 74 70 68 73 76 5 5 45 5 9 75 15 0 0 0 0 0 17 28 0 0 0 0 0
18 7 34 7 26 8 85 96 38 100 28 36 7 80 94 96 74 28 5 5 3 99 100 100 100 59 45 39 28 5 5 79 100 9 3 0 0 0 17 0 4 3 0 0 0
5 10 5 17 65 84 86 100 100 100 98 73 90 69 38 29 99 100 100 90 81 38 100 97 99 10 100 21 53 14 6 5 91 6 5 0 0 0 20 32 5 3 0 0 0
100 61 60 10 9 100 99 100 100 100 42 100 100 100 42 86 100 100 100 100 82 98 100 99 96 72 86 100 100 69 4 5 2 2 0 0 0 22 76 58 6 5 0 0 0

GFSSW_prec_cloud_048.txt.gz
Cloud_Cover
2 0 7 5 0 0 0 0 0 0 89 80 100 100 98 93 90 100 100 100 100 100 76 100 100 100 100 100 100 100 68 100 100 100 100 96 46 60 100 100 100 100 100 100 100
100 100 77 0 0 0 0 1 0 0 0 0 41 100 100 5 1 30 99 100 100 100 100 100 100 100 100 100 100 85 86 100 100 100 100 94 31 5 78 100 100 100 100 100 100
100 100 100 88 100 67 85 0 0 0 2 1 0 23 100 100 99 5 3 100 100 100 100 100 100 100 68 100 100 100 100 100 100 100 100 98 79 64 5 75 89 98 100 100 99
28 25 5 10 9 88 100 98 1 2 0 2 3 87 1 0 2 0 3 5 75 100 100 100 100 95 94 100 100 100 100 100 100 100 100 100 100 18 22 46 18 100 100 93 100
0 0 0 0 0 0 10 10 29 68 100 100 100 100 1 0 0 0 3 17 5 5 60 84 100 100 64 98 100 81 100 100 100 100 100 100 97 100 12 97 100 100 100 100 100
0 0 0 0 0 0 0 0 1 100 100 100 100 99 1 0 0 0 0 18 72 1 4 14 99 100 27 84 97 40 81 100 100 100 100 99 100 100 100 100 100 100 99 86 98
0 0 0 0 0 0 0 0 0 71 100 100 100 100 47 1 0 0 0 0 0 0 0 0 93 100 80 5 85 100 25 100 100 100 100 100 100 88 100 100 100 100 89 38 5
0 0 0 0 2 0 0 0 0 0 8 0 18 18 25 0 0 0 0 0 0 0 0 0 4 96 100 64 42 98 93 79 63 100 100 100 7 100 100 100 100 100 100 94 7
0 23 2 0 15 8 0 0 3 0 0 0 3 24 14 0 0 0 0 0 0 0 0 0 0 0 97 99 100 77 21 20 100 100 100 100 70 100 100 100 85 11 5 20 100
0 0 4 16 7 0 0 0 0 0 0 0 3 73 0 0 0 0 0 0 0 0 0 0 0 0 0 90 12 38 100 100 100 100 100 100 30 100 100 100 7 5 5 7 63
5 11 5 49 1 0 0 0 0 0 0 0 0 0 0 0 0 0 0 0 5 0 0 0 0 0 0 4 100 100 100 94 12 38 100 30 2 13 70 53 7 5 87 100 100
3 100 100 21 4 17 0 0 1 5 0 0 0 0 0 0 0 0 0 0 0 5 0 0 0 0 0 0 8 43 32 92 93 34 8 20 0 0 0 5 5 5 24 100 100
0 100 100 100 4 0 0 0 0 0 0 0 0 0 0 0 0 2 0 0 0 4 1 2 0 0 0 0 4 5 6 90 100 100 5 0 0 0 0 0 0 52 100 100 78
34 100 100 100 0 0 0 0 0 0 0 0 0 0 0 0 24 5 6 5 2 5 26 13 0 1 0 4 1 0 2 66 100 100 97 52 0 0 40 0 0 29 100 98 10
79 100 100 100 29 0 0 0 0 0 0 0 0 0 0 0 3 64 45 75 84 60 97 2 0 4 88 1 0 0 0 0 3 83 91 11 2 1 30 2 59 97 6 1 3
49 100 99 4 95 13 0 0 0 0 0 0 0 0 0 0 52 5 100 65 100 62 100 3 5 1 0 0 1 2 0 0 0 0 0 12 4 56 100 93 100 4 5 5 0
4 28 87 0 0 0 0 0 2 4 0 2 0 0 0 0 31 61 100 97 100 100 11 16 37 38 5 1 5 5 3 0 0 0 0 1 0 87 100 82 100 76 73 93 49
0 0 0 0 0 0 0 0 4 5 5 0 0 0 0 0 0 7 100 100 100 100 100 20 5 5 0 0 4 5 19 0 0 0 0 0 0 0 100 100 100 100 100 5 2
0 0 0 0 0 0 0 5 5 5 5 5 8 2 0 5 5 1 99 100 100 100 100 100 99 83 0 0 0 5 79 78 1 0 0 0 0 0 0 0 44 97 71 0 0
43 1 0 0 0 0 3 5 5 5 6 5 86 5 5 5 3 5 61 100 100 100 100 100 100 100 100 25 1 2 48 100 30 0 0 0 0 0 0 0 0 0 0 0 0
5 5 0 0 0 0 5 5 12 5 5 12 59 39 5 25 5 4 68 76 100 100 100 100 100 100 99 100 89 41 5 37 61 3 0 0 0 0 0 0 0 0 0 0 0
6 0 0 0 3 29 6 5 30 5 5 5 5 5 5 5 5 5 5 32 100 100 100 100 100 100 100 72 17 7 5 11 9 5 0 0 0 0 0 0 0 0 0 0 0
100 94 0 0 5 19 8 11 5 12 30 9 34 81 85 95 96 5 2 5 96 25 99 100 100 100 100 97 17 2 0 0 0 3 0 0 0 0 0 0 57 0 0 0 0
20 26 5 0 5 5 63 90 55 62 8 49 44 88 100 71 55 77 100 46 24 72 11 64 68 30 75 28 4 2 4 5 16 6 0 0 0 0 0 0 62 0 0 0 0
10 28 83 44 7 10 100 100 95 100 66 62 88 100 86 100 100 100 71 100 35 5 17 48 100 92 49 8 5 5 5 4 50 9 80 0 0 0 0 7 4 0 0 0 0
52 70 92 85 5 100 60 100 100 88 99 84 99 100 100 98 100 100 100 78 100 100 59 78 100 100 100 100 16 5 5 5 5 5 5 5 5 0 0 64 0 5 4 0 0
100 100 99 50 6 16 24 80 100 100 99 100 100 100 78 62 100 100 100 97 100 100 100 100 85 81 20 3 27 53 5 2 0 0 0 1 0 5 27 90 0 0 2 0 0